When you browse on this site, cookies collect data to enhance your experience and personalize the content and advertising you see.
Visit our Privacy Policy to learn more. By continuing to use the site, you agree to this use of cookies and data.
  • In Hungary
  • List of Countries
  • For 7 days
  • Water Temperature
  • Weather Map
  • News
  • Weather Widgets
  • user-avatar
    Login

    Hourly Weather Mayrhofen

    Today, 27 May, Wednesday

    Time Temperature Precipitation Wind Pressure Humidity
    00:00 +1°C° 0 mm 1 mps 625 mmHg 93%
    01:00 0°C° 0 mm 1 mps 624 mmHg 93%
    02:00 0°C° 0 mm 1 mps 624 mmHg 90%
    03:00 0°C° 0 mm 1 mps 624 mmHg 88%
    04:00 -1°C° 0 mm 1 mps 624 mmHg 86%
    05:00 +1°C° 0 mm 1 mps 624 mmHg 77%
    06:00 +4°C° 0 mm 1 mps 625 mmHg 68%
    07:00 +6°C° 0 mm 1 mps 626 mmHg 60%
    08:00 +7°C° 0 mm 1 mps 626 mmHg 52%
    09:00 +8°C° 0 mm 2 mps 627 mmHg 44%
    10:00 +10°C° 0 mm 2 mps 628 mmHg 36%
    11:00 +12°C° 0 mm 2 mps 628 mmHg 34%
    12:00 +13°C° 0 mm 2 mps 627 mmHg 33%
    13:00 +14°C° 0 mm 2 mps 627 mmHg 31%
    14:00 +14°C° 0 mm 2 mps 627 mmHg 32%
    15:00 +14°C° 0 mm 2 mps 627 mmHg 33%
    16:00 +12°C° 0 mm 3 mps 627 mmHg 34%
    17:00 +12°C° 0 mm 2 mps 626 mmHg 44%
    18:00 +10°C° 0 mm 2 mps 626 mmHg 54%
    19:00 +8°C° 0 mm 2 mps 625 mmHg 63%
    20:00 +6°C° 0 mm 2 mps 625 mmHg 71%
    21:00 +5°C° 0 mm 1 mps 624 mmHg 79%
    22:00 +3°C° 0 mm 1 mps 624 mmHg 87%
    23:00 +2°C° 0 mm 1 mps 623 mmHg 88%

    Tomorrow, 28 May, Thursday

    Time Temperature Precipitation Wind Pressure Humidity
    00:00 +2°C° 0 mm 1 mps 623 mmHg 88%
    01:00 +2°C° 0 mm 1 mps 623 mmHg 89%
    02:00 +2°C° 0 mm 1 mps 623 mmHg 88%
    03:00 +2°C° 0 mm 1 mps 623 mmHg 87%
    04:00 +2°C° 0 mm 1 mps 623 mmHg 87%
    05:00 +4°C° 0 mm 1 mps 623 mmHg 79%
    06:00 +5°C° 0 mm 1 mps 623 mmHg 71%
    07:00 +6°C° 0 mm 2 mps 624 mmHg 63%
    08:00 +7°C° 0 mm 2 mps 624 mmHg 57%
    09:00 +9°C° 0 mm 2 mps 625 mmHg 51%
    10:00 +12°C° 0 mm 2 mps 625 mmHg 45%
    11:00 +10°C° 0.2 mm 3 mps 624 mmHg 54%
    12:00 +10°C° 0.2 mm 3 mps 624 mmHg 63%
    13:00 +9°C° 0.2 mm 3 mps 623 mmHg 72%
    14:00 +9°C° 0.3 mm 3 mps 623 mmHg 70%
    15:00 +9°C° 0.3 mm 3 mps 623 mmHg 69%
    16:00 +10°C° 0.3 mm 3 mps 623 mmHg 68%
    17:00 +8°C° 0.3 mm 2 mps 622 mmHg 75%
    18:00 +7°C° 0.3 mm 2 mps 622 mmHg 81%
    19:00 +6°C° 0.3 mm 2 mps 621 mmHg 88%
    20:00 +5°C° 0.1 mm 2 mps 621 mmHg 90%
    21:00 +4°C° 0.1 mm 2 mps 621 mmHg 92%
    22:00 +3°C° 0.1 mm 2 mps 621 mmHg 95%
    23:00 +3°C° 0 mm 1 mps 621 mmHg 95%

    Day after tomorrow, 29 May, Friday

    Time Temperature Precipitation Wind Pressure Humidity
    00:00 +3°C° 0 mm 1 mps 621 mmHg 95%
    01:00 +3°C° 0 mm 1 mps 620 mmHg 95%
    02:00 +2°C° 0 mm 1 mps 620 mmHg 94%
    03:00 +2°C° 0 mm 1 mps 620 mmHg 94%
    04:00 +2°C° 0 mm 1 mps 620 mmHg 94%
    05:00 +3°C° 0 mm 1 mps 620 mmHg 89%
    06:00 +4°C° 0 mm 1 mps 620 mmHg 83%
    07:00 +5°C° 0 mm 1 mps 620 mmHg 78%
    08:00 +6°C° 0 mm 2 mps 621 mmHg 67%
    09:00 +7°C° 0 mm 2 mps 621 mmHg 57%
    10:00 +9°C° 0 mm 2 mps 621 mmHg 46%
    11:00 +9°C° 0 mm 2 mps 621 mmHg 43%
    12:00 +10°C° 0 mm 3 mps 621 mmHg 39%
    13:00 +11°C° 0 mm 3 mps 621 mmHg 36%
    14:00 +11°C° 0 mm 3 mps 621 mmHg 39%
    15:00 +10°C° 0 mm 3 mps 620 mmHg 43%
    16:00 +10°C° 0 mm 3 mps 620 mmHg 47%
    17:00 +9°C° 0 mm 3 mps 620 mmHg 55%
    18:00 +8°C° 0 mm 2 mps 619 mmHg 64%
    19:00 +6°C° 0 mm 2 mps 619 mmHg 73%
    20:00 +5°C° 0 mm 2 mps 619 mmHg 80%
    21:00 +4°C° 0 mm 1 mps 618 mmHg 88%
    22:00 +3°C° 0 mm 1 mps 618 mmHg 95%
    23:00 +3°C° 0 mm 1 mps 618 mmHg 95%

    30 May, Saturday

    Time Temperature Precipitation Wind Pressure Humidity
    00:00 +3°C° 0 mm 1 mps 618 mmHg 95%
    01:00 +2°C° 0 mm 1 mps 618 mmHg 95%
    02:00 +2°C° 0 mm 1 mps 617 mmHg 95%
    03:00 +2°C° 0 mm 1 mps 617 mmHg 95%
    04:00 +1°C° 0 mm 1 mps 617 mmHg 94%
    05:00 +2°C° 0 mm 1 mps 617 mmHg 89%
    06:00 +4°C° 0 mm 1 mps 618 mmHg 84%
    07:00 +5°C° 0 mm 1 mps 618 mmHg 79%
    08:00 +6°C° 0 mm 1 mps 618 mmHg 73%
    09:00 +6°C° 0 mm 2 mps 619 mmHg 67%
    10:00 +7°C° 0 mm 2 mps 619 mmHg 62%
    11:00 +8°C° 0 mm 2 mps 619 mmHg 58%
    12:00 +9°C° 0 mm 2 mps 619 mmHg 55%
    13:00 +10°C° 0 mm 3 mps 619 mmHg 51%
    14:00 +9°C° 0 mm 3 mps 619 mmHg 53%
    15:00 +9°C° 0 mm 3 mps 619 mmHg 55%
    16:00 +9°C° 0 mm 3 mps 618 mmHg 57%
    17:00 +8°C° 0 mm 3 mps 618 mmHg 63%
    18:00 +5°C° 0 mm 3 mps 618 mmHg 70%
    19:00 +5°C° 0 mm 2 mps 618 mmHg 76%
    20:00 +4°C° 0 mm 2 mps 617 mmHg 82%
    21:00 +4°C° 0 mm 1 mps 617 mmHg 88%
    22:00 +2°C° 0 mm 1 mps 617 mmHg 94%
    23:00 +2°C° 0 mm 1 mps 617 mmHg 94%

    31 May, Sunday

    Time Temperature Precipitation Wind Pressure Humidity
    00:00 +1°C° 0 mm 1 mps 617 mmHg 94%
    01:00 +1°C° 0 mm 1 mps 616 mmHg 95%
    02:00 +1°C° 0 mm 1 mps 616 mmHg 95%
    03:00 0°C° 0 mm 1 mps 616 mmHg 94%
    04:00 0°C° 0 mm 1 mps 615 mmHg 94%
    05:00 +2°C° 0 mm 1 mps 616 mmHg 85%
    06:00 +4°C° 0 mm 1 mps 617 mmHg 76%
    07:00 +6°C° 0 mm 1 mps 618 mmHg 68%
    08:00 +7°C° 0 mm 1 mps 618 mmHg 60%
    09:00 +8°C° 0 mm 2 mps 618 mmHg 53%
    10:00 +10°C° 0 mm 2 mps 619 mmHg 46%
    11:00 +10°C° 0 mm 2 mps 619 mmHg 48%
    12:00 +10°C° 0 mm 2 mps 619 mmHg 49%
    13:00 +12°C° 0 mm 2 mps 619 mmHg 50%
    14:00 +10°C° 0.1 mm 2 mps 618 mmHg 53%
    15:00 +10°C° 0.1 mm 2 mps 618 mmHg 55%
    16:00 +10°C° 0.1 mm 2 mps 618 mmHg 58%
    17:00 +9°C° 0.3 mm 2 mps 618 mmHg 67%
    18:00 +8°C° 0.3 mm 2 mps 617 mmHg 76%
    19:00 +7°C° 0.3 mm 2 mps 617 mmHg 85%
    20:00 +6°C° 0 mm 1 mps 617 mmHg 89%
    21:00 +5°C° 0 mm 1 mps 616 mmHg 93%
    22:00 +3°C° 0 mm 1 mps 616 mmHg 97%
    23:00 +3°C° 0 mm 1 mps 616 mmHg 96%

    1 June, Monday

    Time Temperature Precipitation Wind Pressure Humidity
    00:00 +1°C° 0 mm 0 mps 616 mmHg 95%
    01:00 +1°C° 0 mm 0 mps 616 mmHg 95%
    02:00 +1°C° 0 mm 0 mps 615 mmHg 94%
    03:00 +1°C° 0 mm 0 mps 615 mmHg 93%
    04:00 0°C° 0 mm 0 mps 615 mmHg 93%
    05:00 +3°C° 0 mm 0 mps 616 mmHg 87%
    06:00 +5°C° 0 mm 0 mps 617 mmHg 81%
    07:00 +7°C° 0 mm 0 mps 618 mmHg 75%
    08:00 +10°C° 0 mm 1 mps 618 mmHg 65%
    09:00 +12°C° 0 mm 1 mps 619 mmHg 56%
    10:00 +14°C° 0 mm 2 mps 619 mmHg 47%
    11:00 +14°C° 0 mm 2 mps 619 mmHg 45%
    12:00 +15°C° 0 mm 2 mps 620 mmHg 42%
    13:00 +16°C° 0 mm 2 mps 620 mmHg 40%
    14:00 +16°C° 0 mm 2 mps 619 mmHg 42%
    15:00 +15°C° 0 mm 2 mps 619 mmHg 44%
    16:00 +15°C° 0 mm 2 mps 619 mmHg 46%
    17:00 +14°C° 0.1 mm 2 mps 619 mmHg 55%
    18:00 +13°C° 0.1 mm 2 mps 618 mmHg 65%
    19:00 +11°C° 0.1 mm 1 mps 618 mmHg 75%
    20:00 +10°C° 0 mm 1 mps 617 mmHg 81%
    21:00 +8°C° 0 mm 1 mps 617 mmHg 86%
    22:00 +5°C° 0 mm 0 mps 616 mmHg 92%
    23:00 +6°C° 0 mm 1 mps 616 mmHg 92%
    Show more